Location: Hertford
(51.8000°N, 0.0667°W)
Time: 01:45:58
(UTC+00:00)

Cosmos 1975 - Pass Details

Date: 18 September 2020
Orbit: 540 x 563 km, 82.5° (Epoch: 30 October)

Event Time Altitude Azimuth Distance (km) Brightness Sun altitude
Rises 18:44:50 0° 183° (S) 2,745 6.3 -6.6°
Reaches altitude 10° 18:47:00 10° 182° (S) 1,853 5.4 -7.0°
Maximum altitude 18:51:04 72° 98° (E) 596 2.8 -7.6°
Drops below altitude 10° 18:55:10 10° 14° (NNE) 1,863 5.5 -8.2°
Sets 18:57:21 0° 13° (NNE) 2,762 6.4 -8.5°
